This is the latest recevied weather packets stored in our database for station/object WD7CGF. If no packets are shown the sender has not sent any weather packets the latest 10 day(s).
| Time | Temp. | Humidity | Pressure | Rain* | Wind** | Luminosity | Snow |
|---|---|---|---|---|---|---|---|
| 1787868511 | 25° C | 44% | 1012.7 hPa | 0 mm | - | - | - |
| 1787867925 | 25° C | 43% | 1012.7 hPa | 0 mm | - | - | - |
| 1787867319 | 25° C | 44% | 1012.7 hPa | 0 mm | - | - | - |
| 1787866713 | 25° C | 44% | 1012.5 hPa | 0 mm | - | - | - |
| 1787866127 | 25° C | 43% | 1012.6 hPa | 0 mm | - | - | - |
| 1787865522 | 25.56° C | 44% | 1012.6 hPa | 0 mm | - | - | - |
| 1787864916 | 25° C | 45% | 1012.8 hPa | 0 mm | - | - | - |
| 1787864309 | 25.56° C | 42% | 1012.9 hPa | 0 mm | - | - | - |
| 1787863726 | 25° C | 44% | 1012.9 hPa | 0 mm | - | - | - |
| 1787863117 | 25° C | 45% | 1012.9 hPa | 0 mm | - | - | - |
| 1787862531 | 25° C | 42% | 1013 hPa | 0 mm | - | - | - |
| 1787861926 | 24.44° C | 42% | 1013 hPa | 0 mm | - | - | - |
| 1787861321 | 25° C | 45% | 1012.9 hPa | 0 mm | - | - | - |
| 1787860715 | 25° C | 44% | 1013.1 hPa | 0 mm | - | - | - |
| 1787860127 | 25° C | 47% | 1013.1 hPa | 0 mm | - | - | - |
| 1787859520 | 25° C | 48% | 1013.2 hPa | 0 mm | - | - | - |
| 1787858912 | 24.44° C | 48% | 1013.4 hPa | 0 mm | - | - | - |
| 1787858327 | 23.89° C | 49% | 1013.4 hPa | 0 mm | - | - | - |
| 1787857720 | 23.89° C | 52% | 1013.5 hPa | 0 mm | - | - | - |
| 1787857112 | 23.33° C | 52% | 1013.3 hPa | 0 mm | - | - | - |
| 1787856530 | 23.89° C | 51% | 1013.3 hPa | 0 mm | - | - | - |
| 1787855922 | 23.33° C | 53% | 1013.7 hPa | 0 mm | - | - | - |
| 1787855314 | 23.33° C | 53% | 1013.5 hPa | 0 mm | - | - | - |
| 1787854727 | 23.33° C | 54% | 1013.5 hPa | 0 mm | - | - | - |
| 1787854121 | 23.33° C | 53% | 1013.3 hPa | 0 mm | - | - | - |
* Rain latest hour (hover to see other rain measurements)
** Current wind speed in m/s (hover to see current wind gust speed)